Location: Edmonton
(53.5500°N, 113.5000°W)
Time: 07:45:01
(UTC-06:00)

Daily predictions for brighter satellites

Satellite Brightness Start Highest point End
(mag) Time Altitude Azimuth Time Altitude Azimuth Time Altitude Azimuth
Lacrosse 5 2.9 20:25:31 10° S 20:29:40 26° SE 20:33:50 10° ENE
Cosmos 1048 Rocket 4.2 20:26:00 10° NNW 20:31:04 54° ENE 20:36:04 10° SE
CZ-2D R/B 3.4 20:27:57 10° SSE 20:31:45 56° ENE 20:35:35 10° N
Okean 3 Rocket 3.6 20:29:04 10° N 20:33:26 62° ENE 20:37:48 10° SSE
SAR-Lupe-4 3.9 20:32:38 10° SE 20:36:03 44° ENE 20:39:30 10° N
Cosmos 1805 4.1 20:33:17 10° SSE 20:36:41 29° E 20:40:07 10° NNE
YAOGAN 6 4.5 20:34:43 10° E 20:37:02 16° ENE 20:39:23 10° NNE
USA 267 3.5 20:33:35 10° E 20:40:05 71° N 20:46:37 10° WNW
HJ-1C 4.0 20:36:51 10° S 20:40:13 62° WSW 20:43:39 10° NNW
Cosmos 1378 4.4 20:37:34 10° NNW 20:41:13 47° W 20:44:49 10° S
SL-27 R/B 3.9 20:38:44 10° NW 20:42:06 40° WSW 20:45:30 10° S
In-Cosmos 22 4.1 20:36:46 10° NNW 20:42:10 85° ENE 20:47:27 10° SSE
Cosmos 1437 Rocket 2.9 20:39:28 10° SSW 20:43:30 87° W 20:47:39 10° NNE
Cosmos 1934 Rocket 3.9 20:40:14 10° S 20:46:20 75° E 20:52:24 10° NNE
ERS-1 Rocket 3.9 20:43:53 10° ESE 20:48:13 30° ENE 20:52:34 10° N
Cosmos 1340 Rocket 3.7 20:45:27 10° N 20:49:05 30° ENE 20:52:41 10° SE
Meteor 1-29 4.3 20:47:02 10° NE 20:49:41 20° E 20:52:19 10° SE
USA 186 0.9 20:47:41 10° SSE 20:49:54 52° ENE 20:52:04 10° N
Meteor 1-22 Rocket 4.4 20:44:59 10° S 20:50:52 78° E 20:56:59 10° NNE
SJ-6B 4.5 20:47:35 10° SSW 20:51:03 35° W 20:54:32 10° NNW
Cosmos 1844 Rocket 2.8 20:46:05 10° SSW 20:51:45 87° WNW 20:57:26 10° NNE
Cosmos 1470 4.2 20:49:02 10° SE 20:51:53 19° E 20:54:45 10° NE
COSMOS 2487 2.5 20:50:06 10° NNW 20:53:40 63° ENE 20:57:12 10° SE
SeaSat 1 4.0 20:50:18 10° S 20:54:50 37° WSW 20:59:25 10° NW
Cosmos 1937 Rocket 3.5 20:49:38 10° SSW 20:54:55 85° ESE 21:00:16 10° NNE
Cosmos 1076 Rocket 3.5 20:50:55 10° N 20:55:10 66° ENE 20:59:24 10° SSE
Cosmos 2084 Rocket 3.7 20:51:22 10° WSW 20:55:18 64° NW 20:59:08 10° NE
SAR-Lupe-1 4.1 20:52:10 10° SSE 20:55:42 63° ENE 20:59:16 10° N
Cosmos 1812 Rocket 3.7 20:51:24 10° SSW 20:55:49 80° WNW 21:00:13 10° N
Cosmos 1833 Rocket 2.7 20:50:56 10° NNW 20:56:36 78° ENE 21:02:13 10° SE
Cosmos 1818 4.1 20:53:36 10° NW 20:58:59 60° SW 21:04:18 10° SSE
Helios 1B rocket 3.0 20:56:35 10° NNE 21:00:24 34° E 21:04:10 10° SSE
Meteor 1-4 Rocket 3.0 20:58:57 10° SSE 21:02:10 36° E 21:05:24 10° NNE
Cosmos 2251 Rocket 4.2 20:57:56 10° NNW 21:02:54 38° NE 21:07:00 14° ESE
GP-B 3.3 21:00:11 10° SSE 21:04:27 49° E 21:08:45 10° N
Cosmos 2344 3.8 20:57:23 10° SSW 21:04:59 64° SE 21:14:00 10° NE
Cosmos 1766 Rocket 3.6 21:01:12 10° N 21:05:41 64° ENE 21:10:08 10° SSE
Cosmos 1733 4.4 21:02:39 10° SE 21:05:47 24° E 21:08:57 10° NE
Cosmos 2278 Rocket 2.2 21:00:59 10° SSW 21:06:34 61° ESE 21:12:10 10° NE
Cosmos 1269 Rocket 4.1 21:02:36 10° NNW 21:07:55 86° WSW 21:13:13 10° SSE
Cosmos 1544 3.1 21:04:58 10° S 21:08:34 60° E 21:12:13 10° NNE
Resurs 01 Rocket 2.6 21:04:40 10° S 21:08:57 50° W 21:13:18 10° NNW
SJ-11-01 4.4 21:05:35 10° SSE 21:10:14 61° ENE 21:14:55 10° N
H-2A R/B 4.1 21:08:50 10° S 21:12:34 42° W 21:16:22 10° NNW
Cosmos 1758 3.3 21:10:53 10° S 21:14:48 61° E 21:18:47 10° NNE
Lacrosse 4 Rocket 1.9 21:11:36 10° SW 21:15:37 61° NW 21:19:41 10° NNE
Helios 1A 3.1 21:12:39 10° S 21:16:49 76° WSW 21:21:03 10° NNW
Cosmos 2263 Rocket 4.4 21:14:24 10° W 21:19:02 25° NW 21:23:41 10° NNE
SL-14 R/B 4.2 21:16:08 10° N 21:19:34 30° ENE 21:21:14 21° ESE
Cosmos 2297 4.1 21:16:08 10° S 21:21:27 41° ESE 21:26:49 10° NE
ATLAS 5 CENTAUR R/B 3.0 21:18:15 10° SSE 21:21:42 20° ESE 21:25:21 10° ENE
Cosmos 1953 2.2 21:19:27 10° S 21:23:30 70° E 21:27:33 10° NNE
Cosmos-2242 3.3 21:22:45 10° SSE 21:26:48 44° E 21:30:52 10° NNE
Cosmos 1939 Rocket 2.9 21:22:45 10° SSE 21:26:48 75° ENE 21:30:58 10° NNW
Cosmos 2098 Rocket 4.4 21:19:53 10° S 21:27:16 76° E 21:34:48 10° NNE
Cosmos 1605 Rocket 4.2 21:21:58 10° SSW 21:28:16 82° WNW 21:34:42 10° N
Cosmos 2100 Rocket 4.2 21:23:20 10° SSE 21:29:27 53° E 21:35:38 10° NNE
Cosmos 2082 Rocket 2.7 21:24:45 10° NW 21:30:24 61° WSW 21:35:58 10° SSE
Fregat R/B Cluster 11 4.4 21:29:34 10° SSW 21:33:43 38° SE 21:36:57 10° NE
Cosmos 372 Rocket 4.1 21:30:56 10° S 21:35:50 47° ESE 21:40:47 10° NE
ATLAS CENTAUR R/B 1.7 21:34:25 10° NW 21:35:52 25° N 21:36:03 25° NNE
Cosmos 1743 Rocket 3.6 21:32:56 10° N 21:37:20 65° ENE 21:40:24 19° SSE
CZ-3B DEB 2.2 21:30:10 10° SW 21:38:59 65° SSE 21:41:56 21° E
Cosmos 158 Rocket 4.5 21:34:13 10° NNW 21:39:13 59° WSW 21:44:19 10° S
CZ-4B DEB 3.5 21:36:22 10° S 21:39:24 49° W 21:42:27 10° NNW
Cosmos 1500 Rocket 3.7 21:35:11 10° N 21:39:26 51° ENE 21:41:35 26° SE
Cosmos 1271 Rocket 3.0 21:35:59 10° S 21:39:52 50° E 21:43:47 10° NNE
Cosmos 1867 3.9 21:35:11 10° S 21:40:17 42° ESE 21:45:25 10° NE
Lacrosse 5 rocket 1.9 21:36:37 10° WNW 21:40:28 46° SW 21:42:20 25° SSE
Cosmos 2221 4.4 21:45:36 15° ENE 21:45:36 15° ENE 21:47:15 10° NE
H-2A R/B 3.5 21:43:57 19° ENE 21:44:37 20° ENE 21:47:36 10° N
USA 215 3.8 21:40:41 10° ENE 21:46:31 34° SE 21:52:20 10° SSW
Cosmos 1802 Rocket 4.0 21:43:29 10° S 21:49:27 58° E 21:55:31 10° NNE
Cosmos 1703 4.2 21:48:40 10° N 21:52:10 29° ENE 21:52:27 29° ENE
Cosmos 1674 3.8 21:49:38 10° NNW 21:53:14 44° W 21:56:51 10° SSW
Cosmos 494 Rocket 3.9 21:48:43 10° NNW 21:53:53 80° ENE 21:56:38 28° SSE
ARGOS 3.4 21:51:57 28° SE 21:54:28 50° ENE 21:59:39 10° N
MetOp-A 4.1 21:52:28 25° SE 21:55:36 66° ENE 22:00:55 10° NNW
Cosmos 1356 Rocket 3.3 21:51:28 10° N 21:55:39 70° ENE 21:57:16 35° SSE
BREEZE-M DEB (TANK) 3.4 21:55:27 10° WSW 21:57:19 26° SSW 21:57:19 26° SSW
Cosmos 2061 Rocket 4.0 21:54:58 10° S 22:01:21 75° E 22:07:48 10° NNE
Envisat 3.9 22:01:23 10° S 22:06:17 48° W 22:11:13 10° NNW
H-2A R/B 2.7 22:04:42 32° ESE 22:06:23 41° ENE 22:11:19 10° N
Cosmos 1184 Rocket 3.1 22:04:07 10° NNW 22:07:31 68° W 22:08:28 42° SSW
YAOGAN 6 2.9 22:08:35 32° S 22:10:10 66° WSW 22:13:55 10° NNW
Cosmos 2297 Rocket 4.5 22:07:21 10° NNW 22:10:29 15° NNE 22:13:37 10° NE
Lacrosse 5 1.7 22:07:03 10° WSW 22:12:09 81° SSE 22:15:20 23° ENE
Geosat 4.2 22:08:16 10° NNE 22:13:19 72° NW 22:18:19 10° SW
Cosmos 1125 Rocket 3.7 22:10:33 10° SSW 22:15:45 73° WNW 22:21:01 10° NNE
Cosmos 1842 Rocket 3.5 22:16:03 43° SSE 22:17:19 66° E 22:21:42 10° NNE
SPOT 5 3.0 22:14:57 34° SSE 22:17:20 79° ENE 22:22:40 10° NNW
Meteor 1-29 4.4 22:19:27 10° N 22:22:43 39° WNW 22:25:59 10° SW
USA 267 3.3 22:20:07 34° SE 22:23:10 73° SSW 22:29:44 10° WNW
Cosmos 1459 Rocket 4.1 22:17:22 10° SSW 22:23:38 77° WNW 22:29:49 10° N
Landsat 7 4.2 22:23:37 42° E 22:24:12 44° ENE 22:28:44 10° N
Cosmos 1340 Rocket 4.5 22:21:57 10° NNW 22:25:35 32° W 22:28:27 14° SSW
Cosmos 2058 2.8 22:21:31 10° N 22:25:44 85° E 22:26:21 64° SSE
Cosmos 2151 3.0 22:21:46 10° NNW 22:26:04 79° W 22:27:09 49° S
YAOGAN 11 4.4 22:24:14 35° S 22:26:04 71° WSW 22:30:38 10° NNW
ERS-1 Rocket 3.6 22:23:25 20° S 22:26:47 53° W 22:31:44 10° NNW
Cosmos 1470 3.6 22:23:47 10° SSW 22:27:40 50° WNW 22:31:33 10° N
Cosmos 2173 Rocket 4.2 22:22:08 10° SSW 22:28:19 73° WNW 22:34:39 10° N
Cosmos 1626 2.5 22:25:27 10° N 22:28:40 51° NE 22:28:40 51° NE
Cosmos 2369 Rocket 3.9 22:32:35 18° ENE 22:32:35 18° ENE 22:34:20 10° NE
Cosmos 2233 Rocket 4.2 22:28:53 41° ESE 22:29:58 45° E 22:35:46 10° NNE
Cosmos 1864 Rocket 4.4 22:29:34 29° S 22:32:58 70° E 22:39:15 10° NNE
Coronas F rocket 4.2 22:30:53 10° NNW 22:31:04 12° NNW 22:31:04 12° NNW
Helios 1B rocket 4.3 22:31:59 10° N 22:35:41 32° WNW 22:39:22 10° SW
Cosmos 2227 Rocket 4.2 22:33:05 10° NNW 22:36:58 18° NNE 22:40:02 13° ENE
Terra 2.3 22:39:22 44° ENE 22:39:28 44° ENE 22:44:01 10° N
USA 245 4.3 22:42:57 44° S 22:44:54 84° WSW 22:51:02 10° NNW
Cosmos 2251 Rocket 4.3 22:40:15 10° NW 22:45:19 46° WSW 22:47:31 30° SSW
CARTOSAT-1 4.1 22:49:27 46° NE 22:49:27 46° NE 22:53:09 10° N
SPOT 1/Viking Rocket 3.5 22:48:50 55° S 22:50:01 82° WSW 22:55:17 10° NNW
Cosmos 2278 Rocket 3.8 22:45:48 10° WSW 22:51:01 36° NW 22:56:15 10° NNE
Cosmos 1666 Rocket 3.8 22:48:56 10° N 22:52:39 55° NE 22:52:39 55° NE
Sich 1 3.3 22:50:19 10° N 22:54:10 57° NE 22:54:10 57° NE
Lacrosse 4 Rocket 4.2 22:52:21 10° WNW 22:55:08 18° NNW 22:57:57 10° NNE
Cosmos 1633 Rocket 3.5 22:53:34 10° N 22:57:18 52° NE 22:57:18 52° NE
Cosmos 389 Rocket 4.0 23:00:39 33° N 23:00:39 33° N 23:02:48 10° N
Cosmos 2016 Rocket 4.4 22:53:50 10° SSW 22:59:58 60° WNW 23:06:04 10° N
MOS 1-B Rocket 4.5 23:01:51 38° S 23:05:10 79° WSW 23:12:00 10° NNW
Cosmos 1943 Rocket 4.2 23:08:44 15° ENE 23:08:44 15° ENE 23:09:48 10° NE
ATLAS 5 CENTAUR R/B 1.8 23:00:45 10° SW 23:05:37 89° SE 23:11:03 10° NE
Cosmos 1725 Rocket 4.1 23:03:53 27° SSW 23:07:24 73° WNW 23:13:37 10° N
Cosmos 407 Rocket 4.1 23:02:48 10° NNW 23:07:55 45° NE 23:07:58 45° ENE
SL-08 RB Rocket 4.3 23:11:24 48° WSW 23:11:53 51° W 23:16:28 10° NNW
Cosmos 1464 Rocket 4.4 23:14:49 44° ENE 23:14:49 44° ENE 23:20:11 10° NNE
Cosmos 2219 3.8 23:09:30 10° NNW 23:14:56 44° NE 23:15:21 43° ENE
Cosmos 2344 4.5 23:11:57 10° W 23:19:51 57° NNW 23:29:56 10° ENE
H-2A R/B 2.7 23:21:04 50° NW 23:21:04 50° NW 23:24:22 10° NNW
Cosmos 1805 Rocket 4.2 23:16:18 10° NNW 23:20:21 53° W 23:20:21 53° W
Cosmos 2221 3.2 23:22:26 54° NNW 23:22:26 54° NNW 23:25:59 10° N
Cosmos 1867 4.2 23:18:27 10° WSW 23:23:49 55° NW 23:29:14 10° NE
USA 215 3.1 23:23:35 10° ENE 23:30:11 79° SSE 23:36:44 10° WSW
SL-24 R/B - RUBIN 2 4.2 23:26:44 10° NW 23:33:06 80° NE 23:33:12 79° ENE
ARGOS 4.5 23:33:27 28° SW 23:34:57 33° W 23:39:46 10° NNW
H-2A R/B 3.0 23:45:20 39° WSW 23:45:49 40° W 23:50:50 10° NNW
Cosmos 1140 Rocket 4.4 23:41:43 10° NNW 23:46:06 41° NE 23:46:06 41° NE
In-Cosmos 22 Rocket 4.4 23:41:24 10° N 23:46:29 63° NNE 23:46:29 63° NNE
Cosmos 676 Rocket 4.5 23:43:40 10° NNW 23:48:14 56° NNE 23:48:14 56° NNE
CZ-3B DEB 3.1 23:45:28 10° W 23:49:03 31° W 23:49:03 31° W
Meteor 2-12 Rocket 4.3 23:52:56 84° NNW 23:52:56 84° NNW 23:58:50 10° N
